Location: Tucson
(32.2217°N, 110.9265°W)
Time: 07:27:33
(UTC-07:00)

Tiros 1 - Pass Details

Date: 31 October 2021
Orbit: 629 x 664 km, 48.4° (Epoch: 26 November)

Event Time Altitude Azimuth Distance (km) Brightness Sun altitude
Rises 08:01:25 0° 260° (W) 2,985 10.1 15.0°
Reaches altitude 10° 08:04:02 10° 271° (W) 2,074 9.3 15.5°
Maximum altitude 08:08:11 28° 331° (NNW) 1,224 8.3 16.3°
Drops below altitude 10° 08:12:20 10° 31° (NNE) 2,072 9.8 17.1°
Sets 08:14:57 0° 43° (NE) 2,981 10.7 17.5°
